Terre Haute, IN

8:49 PM EST on December 06, 2019 (GMT -0500)
Terre Haute International-Hulman

Weather History for KHUF - October, 2019

Change the Weather History Date:

Friday, October 4, 2019

  Actual Average Record
Temperature  
Mean Temperature 60 °F 58 °F  
Max Temperature 71 °F 71 °F 94 °F (1954)
Min Temperature 48 °F 46 °F 32 °F (1970)
Degree Days  
Heating Degree Days 5 8  
Month to date heating degree days 5 29  
Since 1 July heating degree days 7 107  
Cooling Degree Days 0 1  
Month to date cooling degree days 34 4  
Year to date cooling degree days 1298 982  
Growing Degree Days 10 (Base 50)    
Moisture  
Dew Point 47 °F    
Average Humidity 67    
Maximum Humidity 93    
Minimum Humidity 41    
Precipitation  
Precipitation 0.00 in 0.11 in 1.84 in (1990)
Month to date precipitation 0.00 0.44  
Year to date precipitation 37.93 35.14  
Sea Level Pressure  
Sea Level Pressure 30.28 in    
Wind  
Wind Speed 8 mph (NNE)    
Max Wind Speed 16 mph    
Max Gust Speed 21 mph    
Visibility 10 miles    
Events      
T = Trace of Precipitation, MM = Missing Value Source: NWS Daily Summary

Daily Weather History Graph

Daily Weather History Graph

Search for Another Location

Airport or City:

Astronomy

Oct. 04, 2019 Rise Set
Actual Time 7:48 AM EDT 7:27 PM EDT
Civil Twilight 7:21 AM EDT 7:54 PM EDT
Nautical Twilight 6:50 AM EDT 8:25 PM EDT
Astronomical Twilight 6:18 AM EDT 8:56 PM EDT
Moon 2:17 PM EDT (10/4) 11:57 PM EDT (10/4)
Length of Visible Light 12h 32m
Length of Day
11h 39m
Waxing Crescent, 39% of the Moon is Illuminated
Oct 4
Waxing Crescent
Oct 5
First Quarter
Oct 13
Full
Oct 21
Last Quarter
Oct 27
New

Hourly Weather History & Observations

Time (EDT) Temp. Dew Point Humidity Pressure Visibility Wind Dir Wind Speed Gust Speed Precip Events Conditions
12:53 AM 55.9 °F 50.0 °F 80% 30.22 in 10.0 mi North 6.9 mph - N/A   Clear
1:53 AM 55.0 °F 48.9 °F 80% 30.23 in 10.0 mi North 8.1 mph - N/A   Clear
2:53 AM 54.0 °F 48.0 °F 80% 30.24 in 10.0 mi North 8.1 mph - N/A   Clear
3:53 AM 53.1 °F 48.0 °F 83% 30.25 in 10.0 mi North 9.2 mph - N/A   Clear
4:53 AM 52.0 °F 46.9 °F 83% 30.26 in 10.0 mi North 6.9 mph - N/A   Clear
5:53 AM 51.1 °F 46.9 °F 86% 30.27 in 10.0 mi North 5.8 mph - N/A   Clear
6:53 AM 48.9 °F 46.0 °F 90% 30.29 in 10.0 mi North 6.9 mph - N/A   Clear
7:53 AM 48.0 °F 46.0 °F 93% 30.31 in 10.0 mi North 3.5 mph - N/A   Clear
8:53 AM 51.1 °F 46.9 °F 86% 30.33 in 10.0 mi North 5.8 mph - N/A   Clear
9:53 AM 55.9 °F 46.9 °F 72% 30.34 in 10.0 mi NNE 6.9 mph - N/A   Clear
10:53 AM 60.1 °F 46.9 °F 62% 30.34 in 10.0 mi NNE 9.2 mph - N/A   Clear
11:53 AM 64.0 °F 46.9 °F 54% 30.33 in 10.0 mi NE 12.7 mph 19.6 mph N/A   Clear
12:53 PM 66.0 °F 46.0 °F 48% 30.32 in 10.0 mi NNE 10.4 mph - N/A   Clear
1:53 PM 68.0 °F 45.0 °F 43% 30.30 in 10.0 mi NNE 12.7 mph 19.6 mph N/A   Clear
2:53 PM 69.1 °F 46.0 °F 44% 30.27 in 10.0 mi ENE 10.4 mph 17.3 mph N/A   Clear
3:53 PM 71.1 °F 46.9 °F 42% 30.26 in 10.0 mi NE 9.2 mph - N/A   Clear
4:53 PM 70.0 °F 46.9 °F 44% 30.25 in 10.0 mi NNE 8.1 mph 19.6 mph N/A   Clear
5:53 PM 69.1 °F 46.0 °F 44% 30.25 in 10.0 mi NNE 8.1 mph - N/A   Clear
6:53 PM 66.0 °F 46.0 °F 48% 30.25 in 10.0 mi NNE 6.9 mph - N/A   Clear
7:53 PM 62.1 °F 46.0 °F 56% 30.25 in 10.0 mi NNE 6.9 mph - N/A   Clear
8:53 PM 57.9 °F 46.9 °F 67% 30.26 in 10.0 mi NNE 5.8 mph - N/A   Clear
9:53 PM 57.0 °F 46.0 °F 67% 30.27 in 10.0 mi NE 6.9 mph - N/A   Clear
10:53 PM 52.0 °F 45.0 °F 77% 30.26 in 10.0 mi ENE 5.8 mph - N/A   Clear
11:53 PM 51.1 °F 45.0 °F 80% 30.25 in 10.0 mi ENE 4.6 mph - N/A   Clear